Louisville, KY

6:48 PM EST on January 17, 2017 (GMT -0500)
Louisville International-Standiford

Weather History for KSDF - June, 2013

Change the Weather History Date:

Saturday, June 29, 2013

  Actual Average Record
Temperature  
Mean Temperature 75 °F 79 °F  
Max Temperature 84 °F 88 °F 105 °F (2012)
Min Temperature 65 °F 69 °F 54 °F (1961)
Degree Days  
Heating Degree Days 0 0  
Month to date heating degree days 0 1  
Since 1 June heating degree days 0 1  
Since 1 July heating degree days 4115 4093  
Cooling Degree Days 10 14  
Month to date cooling degree days 326 310  
Year to date cooling degree days 554 484  
Since 1 June cooling degree days 326 310  
Growing Degree Days 25 (Base 50)    
Moisture  
Dew Point 62 °F    
Average Humidity 72    
Maximum Humidity 93    
Minimum Humidity 51    
Precipitation  
Precipitation 0.54 in 0.11 in 0.80 in (1880)
Month to date precipitation 4.30 3.67  
Year to date precipitation 23.35 23.54  
Snow  
Snow 0.00 in 0.00 in - ()
Month to date snowfall 0.0 0.0  
Since 1 June snowfall 0.0 0.0  
Since 1 July snowfall 9.8 12.5  
Snow Depth 0.00 in    
Sea Level Pressure  
Sea Level Pressure 29.63 in    
Wind  
Wind Speed 7 mph (West)    
Max Wind Speed 23 mph    
Max Gust Speed 29 mph    
Visibility 9 miles    
Events Rain , Thunderstorm    
T = Trace of Precipitation, MM = Missing Value Source: NWS Daily Summary

Daily Weather History Graph

Daily Weather History Graph

Search for Another Location

Airport or City:

Trip Planner

Search our weather history database for the weather conditions in past years. The results will help you decide how hot, cold, wet, or windy it might be!

Date:

Astronomy

Jun. 29, 2013 Rise Set
Actual Time 6:22 AM EDT 9:10 PM EDT
Civil Twilight 5:51 AM EDT 9:41 PM EDT
Nautical Twilight 5:11 AM EDT 10:21 PM EDT
Astronomical Twilight 4:26 AM EDT 11:05 PM EDT
Moon 12:45 AM EDT (6/29) 1:26 PM EDT (6/29)
Length of Visible Light 15h 50m
Length of Day
14h 47m
Waning Gibbous, 56% of the Moon is Illuminated
Jun 29
Waning Gibbous
Jun 30
Last Quarter
Jul 8
New
Jul 15
First Quarter
Jul 22
Full

Hourly Weather History & Observations

Time (EDT) Temp. Heat Index Dew Point Humidity Pressure Visibility Wind Dir Wind Speed Gust Speed Precip Events Conditions
12:56 AM 73.9 °F - 59.0 °F 59% 29.65 in 10.0 mi NW 9.2 mph - N/A   Scattered Clouds
1:56 AM 73.0 °F - 60.1 °F 64% 29.63 in 10.0 mi NNE 3.5 mph - N/A   Mostly Cloudy
2:56 AM 73.0 °F - 60.1 °F 64% 29.62 in 10.0 mi West 4.6 mph - N/A   Mostly Cloudy
3:56 AM 71.1 °F - 60.1 °F 68% 29.60 in 10.0 mi WNW 5.8 mph - N/A   Mostly Cloudy
4:56 AM 70.0 °F - 60.1 °F 71% 29.60 in 10.0 mi West 4.6 mph - N/A   Partly Cloudy
5:56 AM 70.0 °F - 60.1 °F 71% 29.62 in 10.0 mi SW 4.6 mph - N/A   Partly Cloudy
6:56 AM 70.0 °F - 60.1 °F 71% 29.63 in 10.0 mi Calm Calm - N/A   Scattered Clouds
7:56 AM 71.1 °F - 61.0 °F 70% 29.63 in 10.0 mi SSW 3.5 mph - N/A   Partly Cloudy
8:56 AM 75.0 °F - 61.0 °F 62% 29.63 in 10.0 mi West 5.8 mph - N/A   Partly Cloudy
9:56 AM 78.1 °F - 62.1 °F 58% 29.63 in 10.0 mi WNW 8.1 mph - N/A   Scattered Clouds
10:56 AM 80.1 °F 81.5 °F 63.0 °F 56% 29.62 in 10.0 mi West 9.2 mph 16.1 mph N/A   Mostly Cloudy
11:56 AM 79.0 °F - 62.1 °F 56% 29.62 in 10.0 mi WSW 9.2 mph - N/A   Mostly Cloudy
12:56 PM 79.0 °F - 62.1 °F 56% 29.62 in 10.0 mi WSW 8.1 mph - 0.00 in Rain Light Rain
1:56 PM 82.0 °F 83.1 °F 63.0 °F 52% 29.61 in 10.0 mi WSW 12.7 mph - 0.00 in   Mostly Cloudy
2:56 PM 81.0 °F 81.9 °F 62.1 °F 52% 29.59 in 10.0 mi SW 9.2 mph 20.7 mph N/A   Mostly Cloudy
3:56 PM 81.0 °F 81.7 °F 61.0 °F 50% 29.60 in 10.0 mi West 15.0 mph - N/A   Mostly Cloudy
4:56 PM 77.0 °F - 64.9 °F 66% 29.60 in 10.0 mi West 8.1 mph - 0.01 in   Mostly Cloudy
5:56 PM 82.9 °F 85.0 °F 66.0 °F 56% 29.58 in 10.0 mi WSW 9.2 mph - N/A   Mostly Cloudy
6:56 PM 82.9 °F 83.7 °F 62.1 °F 49% 29.59 in 10.0 mi West 16.1 mph 20.7 mph N/A   Mostly Cloudy
7:03 PM 77.0 °F - 62.6 °F 61% 29.62 in 10.0 mi North 18.4 mph 28.8 mph N/A   Mostly Cloudy
7:56 PM 73.0 °F - 62.1 °F 68% 29.63 in 10.0 mi NNE 11.5 mph - N/A   Overcast
8:07 PM 71.6 °F - 62.6 °F 73% 29.64 in 10.0 mi NNE 9.2 mph - N/A Thunderstorm Thunderstorm
8:41 PM 69.8 °F - 64.4 °F 83% 29.67 in 1.5 mi NNW 10.4 mph 17.3 mph 0.07 in Rain , Thunderstorm Heavy Thunderstorms and Rain
8:45 PM 68.0 °F - 62.6 °F 83% 29.66 in 1.0 mi NNE 5.8 mph 17.3 mph 0.35 in Rain , Thunderstorm Heavy Thunderstorms and Rain
8:53 PM 68.0 °F - 64.4 °F 88% 29.66 in 4.0 mi NNW 4.6 mph - 0.40 in Rain , Thunderstorm Light Thunderstorms and Rain
8:56 PM 66.9 °F - 64.0 °F 90% 29.65 in 7.0 mi WNW 3.5 mph - 0.40 in Rain , Thunderstorm Light Thunderstorms and Rain
9:56 PM 66.9 °F - 62.1 °F 84% 29.67 in 9.0 mi South 6.9 mph - 0.08 in Rain , Thunderstorm Light Thunderstorms and Rain
10:16 PM 66.2 °F - 62.6 °F 88% 29.67 in 7.0 mi East 4.6 mph - 0.02 in Rain Rain
10:56 PM 66.0 °F - 62.1 °F 87% 29.65 in 10.0 mi SSE 6.9 mph - 0.05 in   Overcast
11:56 PM 64.9 °F - 63.0 °F 93% 29.66 in 10.0 mi Calm Calm - N/A   Mostly Cloudy